User: anonymous
Location: Harbor Island
(32.3990°N, 80.4435°W)
Time: 02:04:29
(UTC-04:00)
Language:

Cosmos 1455 - Orbit

View from above orbital plane
View from above orbital plane
View from above satellite
View from above satellite

Ground track
Ground track

The orbit data is extracted from the following two-line orbital elements,

1 14032U 83037A   14261.75588336  .00005025  00000-0  29251-3 0  6272
2 14032 082.5231 354.3027 0021102 150.0908 325.0830 15.11631083709585
Epoch (UTC): 18 September 2014 18:08:28
Eccentricity: 0.0021102
inclination: 82.5231°
perigee height: 516 km
apogee height: 546 km
right ascension of ascending node: 354.3027°
argument of perigee: 150.0908°
revolutions per day: 15.11631083
mean anomaly at epoch: 325.0830°
orbit number at epoch: 70958

The dashed part of the orbit path shows where the satellite is in the earth's shadow,  

DLR